User: anonymous   Login
Location: Unspecified
(0.0000°N, 0.0000°E)
Time: 19:09:20
(UTC+00:00)
Language:

STARLINK-32009 - Orbit

View from above orbital plane
View from above orbital plane
View from above satellite
View from above satellite

Ground track
Ground track

The orbit is defined by the following mean orbital elements,

1 60104U          26145.11683928 +.00000000 +00000-0 +35667-5 0 00002
2 60104  53.1608  42.3966 0001349  92.0121 268.1034 15.30200077    07
Epoch (UTC): 25 May 2026 02:48:14
Eccentricity: 0.0001349
inclination: 53.1608°
perigee height: 474 km
apogee height: 476 km
right ascension of ascending node: 42.3966°
argument of perigee: 92.0121°
revolutions per day: 15.30200077
mean anomaly at epoch: 268.1034°

The dashed part of the orbit path shows where the satellite is in the earth's shadow,  

DLR